This demonstration page uses our WeatherBlox Daily Observations layout. Learn more.

Left ArrowRight Arrow

Hourly Observations for May 12, 2020

Temp ( °F °C ) Dew Point ( °F °C ) Humidity (%) Winds ( mph kmh ) Pressure ( in mb ) Visibility ( mi km ) Precip ( " mm )
12:56 am 00:56 Cloudy 40 4.4 34 1.1 79 79 Calm 30.26 1025 10 16 0.00 0.00
1:56 am 01:56 Cloudy 40 4.4 34 1.1 79 79 Calm 30.24 1024 10 16 0.00 0.00
2:56 am 02:56 Cloudy 40 4.4 34 1.1 79 79 SSW 3 6 30.24 1024 10 16 0.00 0.00
3:56 am 03:56 Cloudy 40 4.4 34 1.1 79 79 Calm 30.23 1024 10 16 0.00 0.00
4:56 am 04:56 Cloudy 40 4.4 34 1.1 79 79 Calm 30.23 1024 10 16 0.00 0.00
5:56 am 05:56 Cloudy 40 4.4 35 1.7 83 83 Calm 30.23 1024 10 16 0.00 0.00
6:56 am 06:56 Cloudy 40 4.4 35 1.7 83 83 NNE 3 6 30.23 1024 10 16 0.00 0.00
7:06 am 07:06 Cloudy 39 4 36 2 87 87 NE 3 6 30.27 1025 10 16 0.00 0.00
7:56 am 07:56 Cloudy 41 5 32 0 70 70 E 6 9 30.24 1024 10 16 0.00 0.00
8:42 am 08:42 Cloudy 43 6 30 -1 61 61 ESE 6 9 30.25 1024 10 16 0.00 0.00
8:56 am 08:56 Cloudy 42 5.6 30 -1.1 62 62 ESE 9 15 30.23 1024 10 16 0.00 0.00
9:56 am 09:56 Cloudy 43 6.1 29 -1.7 58 58 ESE 9 15 30.22 1023 10 16 0.00 0.00
10:52 am 10:52 Cloudy 45 7 27 -3 49 49 SE 10 17 30.21 1023 10 16 0.00 0.00
10:56 am 10:56 Cloudy 45 7.2 27 -2.8 49 49 E 9 15 30.21 1023 10 16 0.00 0.00
11:56 am 11:56 Cloudy 47 8.3 29 -1.7 50 50 ESE 14 22 30.19 1022 10 16 0.00 0.00
12:56 pm 12:56 Cloudy 48 8.9 30 -1.1 50 50 ESE 14 22 30.17 1022 10 16 0.00 0.00
1:56 pm 13:56 Cloudy 50 10 32 0 50 50 SE 16 26 30.13 1020 10 16 0.00 0.00
2:56 pm 14:56 Cloudy 52 11.1 33 0.6 49 49 SSE 10 17 30.11 1020 10 16 0.00 0.00
3:56 pm 15:56 Cloudy 53 11.7 34 1.1 48 48 SE 13 20 30.08 1019 10 16 0.00 0.00
4:56 pm 16:56 Cloudy 54 12.2 35 1.7 49 49 SSE 14 22 30.06 1018 10 16 0.00 0.00
5:56 pm 17:56 Cloudy 54 12.2 36 2.2 51 51 SSE 12 19 30.06 1018 10 16 0.00 0.00
6:56 pm 18:56 Cloudy 53 11.7 38 3.3 57 57 S 16 26 30.04 1017 10 16 0.00 0.00
7:56 pm 19:56 Cloudy 51 10.6 38 3.3 61 61 SSE 16 26 30.02 1017 10 16 0.00 0.00
8:56 pm 20:56 Cloudy 50 10 39 3.9 66 66 SSE 14 22 30.02 1017 10 16 0.00 0.00
9:53 pm 21:53 Cloudy 48 9 41 5 76 76 SSE 18 30 30.01 1016 10 16 0.00 0.00
9:56 pm 21:56 Cloudy 49 9.4 41 5 74 74 SSE 15 24 30.01 1016 10 16 0.00 0.00
10:56 pm 22:56 Cloudy 48 8.9 42 5.6 80 80 SSE 15 24 30.01 1016 10 16 0.00 0.00
11:56 pm 23:56 Cloudy 48 8.9 42 5.6 80 80 SSE 16 26 30.02 1017 10 16 0.00 0.00

Powered by AerisWeather